Location: Invercargill
(46.4000°S, 168.3500°E)
Time: 17:22:10
(UTC+13:00)

Cosmos 2322 - Pass Details

Date: 04 October 2021
Orbit: 840 x 855 km, 71.0° (Epoch: 17 October)

Event Time Altitude Azimuth Distance (km) Brightness Sun altitude
Rises 00:02:04 0° 214° (SW) 3,436 7.9 -35.4°
Reaches altitude 10° 00:04:44 10° 223° (SW) 2,495 6.9 -35.6°
Enters shadow 00:08:08 28° 254° (WSW) 1,564 5.3 -35.9°
